User: anonymous   Login
Location: Freemans Gardens
(41.6414°N, 83.6077°W)
Time: 21:33:34
(UTC+00:00)
Language:

IRS-1C Rocket - Orbit

View from above orbital plane
View from above orbital plane
View from above satellite
View from above satellite

Ground track
Ground track

The orbit data is extracted from the following two-line orbital elements,

1 23753U 95072C   21016.59955763 -.00000056  00000-0 -38027-5 0  9990
2 23753  98.9640  41.8254 0004587  74.2467 285.9217 14.26596706303923
Epoch (UTC): 16 January 2021 14:23:21
Eccentricity: 0.0004587
inclination: 98.9640°
perigee height: 800 km
apogee height: 806 km
right ascension of ascending node: 41.8254°
argument of perigee: 74.2467°
revolutions per day: 14.26596706
mean anomaly at epoch: 285.9217°
orbit number at epoch: 30392

The dashed part of the orbit path shows where the satellite is in the earth's shadow,  

DLR